星链-5123 (STARLINK-5123 )

导读 | 星芒AI

STARLINK-5123 是 SpaceX Starlink 项目中的一颗低轨通信卫星,属于第二代 Starlink 卫星星座的一部分。该卫星旨在为全球用户提供高速、低延迟的互联网服务,特别关注偏远和网络覆盖不足的地区。它搭载了先进通信设备和激光链路技术,以提升数据传输效率和系统稳定性。STARLINK-5123 的成功部署有助于扩展 Starlink 网络的覆盖范围和容量,推动全球互联网接入的普及与优化。

基本信息
目录编号:
53979
目录名称:
STARLINK-5123
国际标识:
2022-125R
轨道中心:
EARTH
卫星名称:
星链-5123
卫星全名:
星链-5123 (STARLINK-5123 )
卫星状态:
在轨 (已飞行1126 天)
发射日期:
2022-10-05 UTC
国别 :
美国 (US)
星等 :
--
轨道信息
数据来源 国际轨道数据
星历时间: 2025-11-04T21:41:43+0800
8小时前
查看轨道信息
半长轴: 6917.863km
偏心率: 0.0001275
轨道倾角: 53.216°
近地点辐角 90.686°
升交点赤经 60.797°
平近点角 269.428°
近地点: 538.845km
远地点: 540.611km
周期: 95.437分钟
每日圈数: 15.088457
详细信息
固有亮度:
5
最大亮度:
2.5
卫星平台:
Starlink v1.5
覆盖范围:
全球
运营商:
太空探索技术公司
运营商所在国:
美国
制造商(研发单位):
太空探索技术公司
制造商所在国:
美国
使用方式:
暂无
卫星简介
星链(Starlink)计划是由太空探索技术公司(SpaceX)提出的一个巨型低轨卫星互联网星座项目,计划在2019年至2024年间在太空搭建由约1.2万颗卫星组成的“星链”网络,其中1584颗将部署在地球上空550千米处的近地轨道,并从2020年开始工作。该卫星仍在工作。
2D轨道图
3D轨道图
轨道高度分析图
轨道倾角分析图
轨道综合分析图
查看轨道综合分析图